Lid_Strength_Index
3 3 3 2 2 1 1 1 1 0 1 1 1 1 1 0 0 -0 -1 -1 -1 -1 -1 -0 -0 -0 0 0 -0 0 1 1 0 1 1 1 0 -0 -1 -1 -1 -1 -1
3 4 3 3 2 2 1 1 1 1 0 1 0 0 0 0 -0 -1 -1 -1 -1 -1 -1 -0 -0 -0 0 0 0 0 1 1 0 2 2 4 2 0 -0 -1 -1 -0 -1
4 4 4 3 2 2 2 1 1 1 0 -0 0 0 -0 0 1 0 -0 -1 -1 -1 -1 -1 -0 -0 -0 0 0 0 1 2 1 0 2 5 5 3 0 1 0 0 -0
4 4 3 3 2 2 1 1 1 1 0 -0 1 1 2 2 1 0 -0 -1 -1 -1 -1 -1 -0 -0 -0 0 0 -0 0 0 2 1 0 0 1 4 5 1 1 0 0
4 4 3 3 2 2 1 1 1 1 0 0 0 1 1 1 0 -0 1 -0 -1 -1 -1 -1 -1 -0 -0 -0 -0 -0 0 0 1 1 1 1 1 1 3 5 3 1 1
4 4 3 2 2 2 1 1 1 1 0 0 0 1 1 1 1 1 1 0 -0 -0 -0 -0 -1 -0 -0 -0 -0 -0 -0 0 0 0 0 1 2 2 3 4 4 4 2
5 4 4 3 3 2 2 1 1 2 1 1 1 1 1 1 1 1 1 1 1 1 0 -0 -0 -0 -0 -0 -0 -0 0 0 1 0 1 0 1 1 1 3 4 4 3
4 4 3 3 3 2 2 2 2 2 1 1 1 0 0 0 0 0 0 0 1 0 -0 -0 -1 -0 -0 -0 -0 0 0 -0 0 1 1 1 1 1 1 2 3 5 4
5 4 3 3 3 2 2 2 2 1 1 1 1 1 0 1 1 0 -0 0 0 0 -0 -0 -1 -0 -0 -0 -0 0 0 0 0 1 1 1 1 1 0 0 1 3 6
5 4 3 3 2 2 2 1 1 1 1 1 1 1 0 0 0 0 0 0 -0 -0 -0 -0 -0 -0 -0 -0 -0 0 0 0 0 1 1 1 0 0 -0 1 1 1 3
5 4 3 3 2 2 2 2 1 1 1 1 1 1 1 0 0 0 0 0 -0 -0 0 -0 -0 -0 0 0 0 0 0 1 1 1 1 1 1 1 1 0 1 2 2
4 4 3 3 3 2 2 2 1 1 1 1 1 1 1 0 1 0 0 -0 0 -0 0 -0 0 0 0 0 1 1 1 1 2 1 1 1 1 1 1 1 1 1 1
4 4 3 3 3 3 2 2 2 1 1 1 1 1 1 1 1 1 0 0 0 -0 0 0 1 1 0 0 0 1 1 1 1 1 1 1 1 1 1 1 1 1 1
5 4 4 3 3 2 2 2 2 1 1 1 1 1 1 1 1 0 0 0 0 0 0 0 0 0 0 0 0 0 1 1 1 1 1 1 1 1 1 1 1 1 2
5 4 4 3 3 3 2 2 1 1 1 1 1 1 1 1 0 1 0 0 0 0 0 0 0 0 0 0 0 0 1 1 1 1 1 0 1 2 1 1 1 1 2
5 4 4 3 3 3 2 2 2 1 1 1 2 1 1 1 1 1 0 0 0 0 0 0 0 0 0 7 4 1 1 1 1 1 1 1 2 4 5 4 4 2 2
5 4 4 3 3 2 2 2 2 1 1 1 1 1 1 1 1 1 1 1 1 0 1 1 0 1 0 8 7 4 0 1 1 1 1 1 0 0 -0 5 6 5 6
4 4 3 3 2 2 2 1 1 1 1 1 1 1 1 1 1 1 1 1 1 1 1 1 0 0 0 9 8 6 0 1 1 0 0 1 0 0 0 0 1 0 0
4 3 3 2 2 2 1 1 2 1 2 2 2 1 1 1 1 1 1 1 1 1 1 0 1 1 1 9 9 3 1 1 1 0 0 0 0 8 6 0 1 1 1
3 3 2 2 2 2 1 2 2 2 2 2 1 1 1 1 1 1 1 1 1 1 1 1 0 3 1 10 9 3 1 1 1 1 0 6 2 9 7 0 1 1 1
3 2 2 3 2 2 1 2 2 2 1 1 1 1 1 1 1 1 1 1 1 1 1 1 1 0 1 3 10 6 1 1 1 1 1 0 10 10 9 6 0 1 1
3 3 3 3 2 2 2 2 2 1 1 1 1 1 1 1 1 1 1 1 1 1 1 1 1 1 0 6 10 9 6 4 1 1 1 1 10 10 10 6 11 10 6
3 2 3 3 2 2 2 2 2 1 1 1 1 1 1 1 1 1 1 1 1 1 2 2 2 2 1 0 9 10 9 8 1 0 5 11 11 11 9 10 10 9 0
3 2 3 3 3 2 2 1 1 1 1 1 1 1 1 1 1 1 1 1 1 2 2 2 2 2 2 1 0 1 3 8 3 7 5 8 7 10 6 5 4 -1 -0
3 3 3 3 3 2 2 1 1 1 1 1 1 1 1 1 1 1 1 1 0 1 1 1 1 2 2 1 3 2 1 0 3 3 2 2 1 1 1 0 0 -0 -0
3 3 2 2 2 2 2 1 1 1 1 2 2 2 1 1 1 1 1 11 9 9 10 8 3 0 5 9 10 9 9 10 10 1 1 1 1 1 1 1 1 0 2